Eastsound, WA
on Thursday, November 8, 2012

Thursday
Previous Day Next Day
Daily Summary
 ActualAverage (KBLI)Record (KBLI)
Temperature
Mean Temperature °F 45°F  
Max Temperature 48°F 52°F 63°F (2008)
Min Temperature 39°F 38°F 27°F (1979)
Degree Days
Heating Degree Days 22 20  
Month to date heating degree days 155  
Cooling Degree Days 0 0  
Month to date cooling degree days 0  
Year to date cooling degree days 42  
Moisture
Dew Point 38°F   
Average Humidity 77    
Maximum Humidity 87    
Minimum Humidity 53    
Precipitation
Precipitation 0.00 in 0.20 in 1.16 in (1989)
Month to date precipitation 1.53  
Year to date precipitation 27.34  
Wind
Wind Speed 7 mph   
Max Wind Speed 22 mph   
Max Gust Speed 29 mph   
Visibility 10 miles   
Events     

Key: T is trace of precipitation, MM is missing value
Source: NWS Daily Summary
Time(PST)TemperatureDew PointHumidity Pressure Visibility Wind DirectionWind SpeedGust SpeedPrecipitationEvents Conditions
12:15 AM 42.8°F 37.4°F 81% 29.94 in 10.0 miles Calm Calm - N/A   Scattered Clouds
12:35 AM 42.8°F 39.2°F 87% 29.94 in 10.0 miles Calm Calm - N/A   Mostly Cloudy
12:55 AM 42.8°F 37.4°F 81% 29.93 in 10.0 miles East 3.5 mph - N/A   Mostly Cloudy
1:15 AM 42.8°F 37.4°F 81% 29.93 in 10.0 miles ENE 6.9 mph - N/A   Scattered Clouds
1:35 AM 42.8°F 37.4°F 81% 29.92 in 10.0 miles ENE 5.8 mph - N/A   Clear
1:55 AM 42.8°F 37.4°F 81% 29.92 in 10.0 miles ENE 6.9 mph - N/A   Clear
2:15 AM 42.8°F 37.4°F 81% 29.92 in 10.0 miles ENE 5.8 mph - N/A   Partly Cloudy
2:35 AM 41.0°F 37.4°F 87% 29.92 in 10.0 miles NE 3.5 mph - N/A   Partly Cloudy
2:55 AM 44.6°F 35.6°F 71% 29.91 in 10.0 miles ENE 5.8 mph - N/A   Clear
3:15 AM 44.6°F 35.6°F 71% 29.91 in 10.0 miles East 4.6 mph - N/A   Clear
3:35 AM 44.6°F 35.6°F 71% 29.91 in 10.0 miles ENE 5.8 mph - N/A   Clear
3:55 AM 42.8°F 35.6°F 76% 29.90 in 10.0 miles NE 6.9 mph - N/A   Clear
4:15 AM 41.0°F 35.6°F 81% 29.90 in 10.0 miles NNE 6.9 mph - N/A   Clear
4:35 AM 41.0°F 35.6°F 81% 29.89 in 10.0 miles NE 5.8 mph - N/A   Clear
4:55 AM 41.0°F 35.6°F 81% 29.89 in 10.0 miles NE 9.2 mph - N/A   Clear
5:15 AM 41.0°F 35.6°F 81% 29.89 in 10.0 miles NE 6.9 mph - N/A   Clear
5:35 AM 41.0°F 35.6°F 81% 29.90 in 10.0 miles NE 3.5 mph - N/A   Clear
5:55 AM 41.0°F 35.6°F 81% 29.89 in 10.0 miles NE 6.9 mph - N/A   Clear
6:15 AM 41.0°F 33.8°F 76% 29.89 in 10.0 miles Calm Calm - N/A   Clear
6:35 AM 41.0°F 33.8°F 76% 29.89 in 10.0 miles North - - N/A   Clear
6:55 AM 41.0°F 33.8°F 76% 29.89 in 10.0 miles NE 3.5 mph - N/A   Clear
7:15 AM 42.8°F 35.6°F 76% 29.89 in 10.0 miles North 6.9 mph - N/A   Clear
7:35 AM 42.8°F 35.6°F 76% 29.89 in 10.0 miles North 8.1 mph - N/A   Clear
7:55 AM 42.8°F 37.4°F 81% 29.90 in 10.0 miles North 6.9 mph - N/A   Clear
8:15 AM 42.8°F 37.4°F 81% 29.90 in 10.0 miles North 6.9 mph - N/A   Clear
8:35 AM 44.6°F 35.6°F 71% 29.89 in 10.0 miles North 8.1 mph - N/A   Clear
9:15 AM 44.6°F 35.6°F 71% 29.89 in 10.0 miles North 6.9 mph - N/A   Clear
9:35 AM 46.4°F 37.4°F 71% 29.88 in 10.0 miles North 9.2 mph - N/A   Clear
9:55 AM 46.4°F 37.4°F 71% 29.88 in 10.0 miles North 8.1 mph - N/A   Clear
10:15 AM 46.4°F 37.4°F 71% 29.88 in 10.0 miles North 6.9 mph - N/A   Clear
10:35 AM 46.4°F 39.2°F 76% 29.88 in 10.0 miles North 10.4 mph - N/A   Clear
10:55 AM 46.4°F 39.2°F 76% 29.87 in 10.0 miles North 5.8 mph - N/A   Clear
11:15 AM 46.4°F 37.4°F 71% 29.87 in 10.0 miles North 11.5 mph - N/A   Clear
11:35 AM 46.4°F 37.4°F 71% 29.86 in 10.0 miles North 11.5 mph - N/A   Clear
11:55 AM 46.4°F 37.4°F 71% 29.86 in 10.0 miles North 15.0 mph - N/A   Clear
12:15 PM 46.4°F 39.2°F 76% 29.86 in 10.0 miles North 16.1 mph - N/A   Clear
12:35 PM 46.4°F 41.0°F 81% 29.86 in 10.0 miles North 17.3 mph 23.0 mph N/A   Clear
12:55 PM 46.4°F 41.0°F 81% 29.85 in 10.0 miles North 19.6 mph 24.2 mph N/A   Clear
1:15 PM 46.4°F 39.2°F 76% 29.85 in 10.0 miles North - - N/A   Clear
1:35 PM 46.4°F 39.2°F 76% 29.84 in 10.0 miles NNW 17.3 mph 24.2 mph N/A   Clear
1:55 PM 46.4°F 39.2°F 76% 29.84 in 10.0 miles North 20.7 mph 26.5 mph N/A   Clear
2:15 PM 46.4°F 39.2°F 76% 29.83 in 10.0 miles North 21.9 mph 28.8 mph N/A   Clear
2:35 PM 46.4°F 39.2°F 76% 29.84 in 10.0 miles North 20.7 mph 26.5 mph N/A   Clear
2:55 PM 48.2°F 39.2°F 71% 29.84 in 10.0 miles North 18.4 mph 26.5 mph N/A   Clear
3:15 PM 48.2°F 39.2°F 71% 29.84 in 10.0 miles North 17.3 mph 24.2 mph N/A   Clear
3:35 PM 46.4°F 39.2°F 76% 29.84 in 10.0 miles North 18.4 mph 24.2 mph N/A   Clear
3:55 PM 46.4°F 39.2°F 76% 29.84 in 10.0 miles North 18.4 mph - N/A   Clear
4:15 PM 46.4°F 39.2°F 76% 29.83 in 10.0 miles NNW 17.3 mph 23.0 mph N/A   Clear
4:35 PM 46.4°F 39.2°F 76% 29.84 in 10.0 miles North 17.3 mph - N/A   Clear
4:55 PM 46.4°F 39.2°F 76% 29.84 in 10.0 miles North 17.3 mph 23.0 mph N/A   Clear
5:15 PM 46.4°F 41.0°F 81% 29.84 in 10.0 miles North 16.1 mph 21.9 mph N/A   Clear
5:35 PM 46.4°F 41.0°F 81% 29.83 in 10.0 miles North 15.0 mph 20.7 mph N/A   Clear
5:55 PM 46.4°F 39.2°F 76% 29.83 in 10.0 miles North 13.8 mph - N/A   Clear
6:15 PM 46.4°F 41.0°F 81% 29.84 in 10.0 miles North 13.8 mph - N/A   Clear
6:35 PM 46.4°F 39.2°F 76% 29.84 in 10.0 miles North 12.7 mph - N/A   Clear
6:55 PM 46.4°F 41.0°F 81% 29.84 in 10.0 miles North 12.7 mph 17.3 mph N/A   Clear
7:15 PM 46.4°F 41.0°F 81% 29.84 in 10.0 miles North 9.2 mph - N/A   Clear
7:35 PM 46.4°F 41.0°F 81% 29.83 in 10.0 miles North 11.5 mph - N/A   Clear
7:55 PM 46.4°F 41.0°F 81% 29.83 in 10.0 miles North 10.4 mph - N/A   Clear
8:15 PM 46.4°F 41.0°F 81% 29.84 in 10.0 miles North 8.1 mph - N/A   Clear
8:35 PM 46.4°F 41.0°F 81% 29.84 in 10.0 miles North 11.5 mph - N/A   Clear
8:55 PM 46.4°F 41.0°F 81% 29.84 in 10.0 miles North 9.2 mph - N/A   Clear
9:15 PM 46.4°F 39.2°F 76% 29.84 in 10.0 miles Calm Calm - N/A   Clear
9:35 PM 46.4°F 39.2°F 76% 29.84 in 10.0 miles NNE 3.5 mph - N/A   Clear
9:55 PM 44.6°F 37.4°F 76% 29.84 in 10.0 miles Calm Calm - N/A   Clear
10:15 PM 44.6°F 37.4°F 76% 29.85 in 10.0 miles Calm Calm - N/A   Clear
10:35 PM 41.0°F 35.6°F 81% 29.84 in 10.0 miles Calm Calm - N/A   Clear
10:55 PM 39.2°F 35.6°F 87% 29.85 in 10.0 miles Calm Calm - N/A   Clear
11:15 PM 44.6°F 28.4°F 53% 29.85 in 10.0 miles ENE 3.5 mph - N/A   Clear
11:35 PM 44.6°F 28.4°F 53% 29.85 in 10.0 miles Calm Calm - N/A   Clear
11:55 PM 39.2°F 28.4°F 65% 29.85 in 10.0 miles Calm Calm - N/A   Clear
Moon Phase
Nov. 08 Nov. 13 Nov. 20 Nov. 28 Dec. 06
Sunrise:07:10 AM (PST) Moon Rise:12:43 AM (PST)11/8
Sunset:04:39 PM (PST) Moon Set:01:48 PM (PST)11/8

Copyright © 2014 The Weather Underground, Inc.